Location: Gad�tanya
(48.0500°N, 20.8500°E)
Time: 11:57:35
(UTC+00:00)

NOSS 3-4 (C) - Pass Details

Date: 05 July 2020
Orbit: 891 x 1321 km, 63.4° (Epoch: 12 July)

Event Time Altitude Azimuth Distance (km) Brightness Sun altitude
Rises 22:06:55 0° 316° (NW) 3,835 7.5 -18.9°
Reaches altitude 10° 22:09:31 10° 312° (NW) 2,938 6.7 -18.9°
Maximum altitude 22:16:15 51° 239° (WSW) 1,437 4.2 -19.1°
Enters shadow 22:19:54 29° 180° (S) 2,042 4.6 -19.1°
